Change the Weather History Date:

Saturday, April 20, 2013

  Actual Average Record
Temperature  
Mean Temperature 44 °F 57 °F  
Max Temperature 54 °F 66 °F 88 °F (1976)
Min Temperature 33 °F 47 °F 26 °F (1983)
Degree Days  
Heating Degree Days 21 9  
Month to date heating degree days 170 241  
Since 1 July heating degree days 4425 4350  
Cooling Degree Days 0 1  
Month to date cooling degree days 26 18  
Year to date cooling degree days 27 22  
Moisture  
Dew Point 24 °F    
Average Humidity 52    
Maximum Humidity 75    
Minimum Humidity 28    
Precipitation  
Precipitation T in 0.11 in 0.95 in (1981)
Month to date precipitation 3.79 2.16  
Year to date precipitation 14.88 11.33  
Snow  
Snow T in - - ()
Month to date snowfall 0.9  
Since 1 July snowfall 56.0  
Snow Depth 0.00 in    
Sea Level Pressure  
Sea Level Pressure 30.11 in    
Wind  
Wind Speed 10 mph (WNW)    
Max Wind Speed 23 mph    
Max Gust Speed 36 mph    
Visibility 10 miles    
Events      
T = Trace of Precipitation, MM = Missing Value Source: NWS Daily Summary

Daily Weather History Graph

Daily Weather History Graph

Search for Another Location

Airport or City:

Trip Planner

Search our weather history database for the weather conditions in past years. The results will help you decide how hot, cold, wet, or windy it might be!

Date:

Astronomy

Apr. 20, 2013 Rise Set
Actual Time 6:43 AM EDT 8:04 PM EDT
Civil Twilight 6:16 AM EDT 8:31 PM EDT
Nautical Twilight 5:43 AM EDT 9:04 PM EDT
Astronomical Twilight 5:09 AM EDT 9:38 PM EDT
Moon 2:53 PM EDT (4/20) 3:24 AM EDT (4/20)
Length of Visible Light 14h 15m
Length of Day
13h 21m
Waxing Gibbous, 71% of the Moon is Illuminated
Apr 20
Waxing Gibbous
Apr 25
Full
May 2
Last Quarter
May 9
New
May 18
First Quarter

Hourly Weather History & Observations

Time (EDT) Temp. Windchill Dew Point Humidity Pressure Visibility Wind Dir Wind Speed Gust Speed Precip Events Conditions
12:52 AM 41.0 °F 33.5 °F 28.0 °F 60% 29.91 in 10.0 mi WNW 13.8 mph 23.0 mph N/A   Overcast
1:52 AM 39.9 °F 32.1 °F 27.0 °F 60% 29.93 in 10.0 mi West 13.8 mph 21.9 mph N/A   Overcast
2:28 AM 39.2 °F 32.0 °F 28.4 °F 65% 29.98 in 10.0 mi WNW 11.5 mph 19.6 mph N/A   Overcast
2:52 AM 39.9 °F 32.1 °F 28.9 °F 65% 29.96 in 10.0 mi NW 13.8 mph 21.9 mph N/A   Overcast
3:29 AM 37.4 °F 30.3 °F 28.4 °F 70% 30.00 in 10.0 mi WNW 10.4 mph 23.0 mph 0.00 in   Overcast
3:52 AM 36.0 °F 28.0 °F 28.0 °F 73% 30.00 in 10.0 mi WNW 11.5 mph 18.4 mph 0.00 in   Mostly Cloudy
4:08 AM 35.6 °F 27.5 °F 26.6 °F 70% 30.01 in 10.0 mi WNW 11.5 mph - N/A   Scattered Clouds
4:29 AM 35.6 °F 27.1 °F 26.6 °F 70% 30.02 in 10.0 mi WNW 12.7 mph - N/A   Mostly Cloudy
4:52 AM 35.1 °F 25.9 °F 27.0 °F 72% 30.02 in 10.0 mi WNW 13.8 mph 19.6 mph N/A   Scattered Clouds
5:25 AM 35.6 °F 27.5 °F 26.6 °F 70% 30.03 in 10.0 mi WNW 11.5 mph 18.4 mph N/A   Mostly Cloudy
5:52 AM 34.0 °F 27.2 °F 27.0 °F 75% 30.05 in 10.0 mi WNW 8.1 mph 18.4 mph N/A   Mostly Cloudy
6:02 AM 33.8 °F 25.8 °F 26.6 °F 75% 30.04 in 10.0 mi WNW 10.4 mph 18.4 mph N/A   Scattered Clouds
6:52 AM 33.1 °F 26.1 °F 26.1 °F 75% 30.07 in 10.0 mi WNW 8.1 mph - N/A   Clear
7:52 AM 35.1 °F 26.9 °F 27.0 °F 72% 30.10 in 10.0 mi West 11.5 mph - N/A   Clear
8:52 AM 37.9 °F 28.5 °F 27.0 °F 65% 30.12 in 10.0 mi WNW 17.3 mph 27.6 mph N/A   Scattered Clouds
9:22 AM 37.4 °F 29.3 °F 26.6 °F 65% 30.12 in 10.0 mi WNW 12.7 mph 25.3 mph N/A   Mostly Cloudy
9:52 AM 39.0 °F 30.3 °F 27.0 °F 62% 30.14 in 10.0 mi NW 16.1 mph 23.0 mph N/A   Mostly Cloudy
10:28 AM 39.2 °F 31.6 °F 24.8 °F 56% 30.15 in 10.0 mi WNW 12.7 mph 20.7 mph N/A   Overcast
10:52 AM 42.1 °F 33.3 °F 25.0 °F 51% 30.16 in 10.0 mi NW 19.6 mph 25.3 mph N/A   Mostly Cloudy
11:52 AM 44.1 °F 37.4 °F 26.1 °F 49% 30.16 in 10.0 mi WNW 13.8 mph 19.6 mph N/A   Scattered Clouds
12:52 PM 46.0 °F 40.6 °F 24.1 °F 42% 30.15 in 10.0 mi NW 11.5 mph 17.3 mph N/A   Scattered Clouds
1:52 PM 48.9 °F - 24.1 °F 38% 30.14 in 10.0 mi NW 11.5 mph 23.0 mph N/A   Scattered Clouds
2:52 PM 50.0 °F - 21.9 °F 33% 30.15 in 10.0 mi West 12.7 mph 26.5 mph N/A   Clear
3:52 PM 52.0 °F - 23.0 °F 32% 30.15 in 10.0 mi West 11.5 mph 19.6 mph N/A   Clear
4:52 PM 52.0 °F - 21.0 °F 30% 30.16 in 10.0 mi WNW 12.7 mph 21.9 mph N/A   Clear
5:52 PM 52.0 °F - 19.9 °F 28% 30.18 in 10.0 mi NW 12.7 mph 18.4 mph N/A   Clear
6:52 PM 51.1 °F - 19.0 °F 28% 30.20 in 10.0 mi WNW 6.9 mph - N/A   Clear
7:52 PM 48.9 °F - 19.0 °F 31% 30.22 in 10.0 mi Variable 6.9 mph - N/A   Clear
8:52 PM 46.9 °F - 19.0 °F 33% 30.25 in 10.0 mi WNW 4.6 mph - N/A   Clear
9:52 PM 46.0 °F - 18.0 °F 33% 30.28 in 10.0 mi Calm Calm - N/A   Clear
10:52 PM 45.0 °F - 18.0 °F 34% 30.30 in 10.0 mi Calm Calm - N/A   Clear
11:52 PM 43.0 °F - 18.0 °F 37% 30.31 in 10.0 mi Calm Calm - N/A   Clear